SL-16 R/B (22566 NORAD) Tracking and Keplerian Element Data

This shows tracking and keplerian element data for the satellite.

Feedback or suggestion? Click here.




ElementValue
Catalog22566
NameSL-16 R/B
Epoch Orbit48805
Epoch Day16.10821151
Epoch Year2022
RAAN153.187
Inclination71.0082
Eccentricity0.0008073
Argument of Perigee111.0568
Mean Anonmoly249.1419
Mean Motion14.14993121
Decay Rate-2.5E-07
L11 22566U 93016B 22016.10821151 -.00000025 00000+0 11510-4 0 9999
L22 22566 71.0082 153.1870 0008073 111.0568 249.1419 14.14993121488056

Live tracking and technical data element details for SL-16 R/B (NORAD 22566). SL-16 R/B can be tracked NOW for your location showing map with azimuth and elevation plus other details from your city location.

Track the satellite on the map from your city or location and see movement details for azimuth, elevation, latitude, longitude, range, height, and movement on the map or in text.







IsCatalogInMostPopularTable: catalog: 22566, numindb: 227
Update: records affected: 1



GetName: 22566 SL-16 R/B

Hit Count: updated at: Mon, 17 Jan 2022 01:25:26 GMT